Location: Newark
(48.6461°N, 4.3644°W)
Time: 01:46:14
(UTC+00:00)

Transit 4A - Pass Details

Date: 01 February 2020
Orbit: 872 x 973 km, 66.8° (Epoch: 19 February)

Event Time Altitude Azimuth Distance (km) Brightness Sun altitude
Rises 05:21:20 0° 207° (SSW) 3,537 - -24.3°
Reaches altitude 10° 05:23:52 10° 205° (SSW) 2,584 - -23.9°
Exits shadow 05:25:29 19° 203° (SSW) 1,989 9.4 -23.6°
Maximum altitude 05:29:49 74° 122° (ESE) 927 7.9 -22.9°
Drops below altitude 10° 05:35:41 10° 38° (NE) 2,544 10.6 -21.9°
Sets 05:38:10 0° 37° (NE) 3,479 11.4 -21.5°
